Location: Eaton
(41.3139°N, 82.0207°W)
Time: 06:26:24
(UTC+00:00)

Cosmos 2333 Rocket - Pass Details

Date: 17 June 2021
Orbit: 841 x 861 km, 70.8° (Epoch: 27 July)

Event Time Altitude Azimuth Distance (km) Brightness Sun altitude
Exits shadow 02:14:47 14° 126° (SE) 2,197 3.7 -11.2°
Maximum altitude 02:16:59 18° 99° (E) 2,008 3.7 -11.5°
Drops below altitude 10° 02:20:37 10° 59° (ENE) 2,493 4.5 -12.0°
Sets 02:23:52 0° 41° (NE) 3,431 5.5 -12.4°
